Flag for South Africa Weather past 2 weeks in Durban, South Africa

Now
79 °F

Clear.


Feels Like: 81 °F
Forecast: 69 / 89 °F
Wind: 13 mph from Northeast

Location: King Shaka International Airport

Current Time: Jan 25, 2015 at 7:09:10 PM

Latest Report: Jan 25, 2015 at 6:00 PM


Visibility: 10 mi

Pressure: 29.74 "Hg

Humidity: 74%

Dew point: 70 °F

Location of DurbanLocation

Historic Weather in Durban — Graph

°F

Durban temperature yesterday

Maximum temperature yesterday: 84 °F (at 11:00 AM)
Minimum temperature yesterday: 64 °F (at 3:00 AM)
Average temperature yesterday: 75 °F

Past Weeks' High & Low Weather Summary

 TemperatureHumidityPressure
High88 °F (Jan 12, 11:00 AM)94% (Jan 11, 1:00 AM)30.21 "Hg (Jan 11, 1:00 AM)
Low63 °F (Jan 19, 4:00 AM)38% (Jan 17, 8:00 AM)29.50 "Hg (Jan 16, 3:00 PM)
Average75 °F73%29.96 "Hg
* Reported Jan 10 6:00 PM — Jan 25 6:00 PM, Durban, Weather by CustomWeather, © 2014

Note: Actual official high and low records may vary slightly from our data, if they occured in-between our weather recording intervals... More about our weather records

Advertising

Durban weather history for previous 24 hours

 ConditionsComfort  
Time TempWeatherWind HumidityBarometerVisibility
6:00 PM
Jan 25
79 °FClear.13 mph74%29.74 "Hg10 mi
5:00 PM81 °FSunny.21 mph70%29.74 "Hg10 mi
4:00 PM82 °FSunny.21 mph62%29.71 "Hg10 mi
3:00 PM82 °FPassing clouds.20 mph66%29.71 "HgN/A
2:00 PM82 °FPassing clouds.17 mph66%29.74 "HgN/A
1:00 PM82 °FSunny.18 mph62%29.74 "Hg10 mi
12:00 PM84 °FPassing clouds.16 mph55%29.74 "HgN/A
11:00 AM84 °FSunny.16 mph58%29.74 "Hg10 mi
10:00 AM86 °FPassing clouds.13 mph52%29.74 "HgN/A
9:00 AM82 °FPassing clouds.9 mph55%29.77 "HgN/A
8:00 AM79 °FSunny.12 mph61%29.80 "Hg10 mi
7:00 AM75 °FSunny.9 mph69%29.80 "Hg10 mi
6:00 AM70 °FSunny.5 mph78%29.77 "Hg10 mi
5:00 AM70 °FSunny.6 mph78%29.74 "Hg10 mi
4:00 AM70 °FClear.8 mph73%29.74 "Hg10 mi
3:00 AM72 °FClear.10 mph69%29.77 "Hg10 mi
2:00 AM72 °FClear.10 mph69%29.77 "Hg10 mi
1:00 AM73 °FClear.12 mph65%29.77 "Hg10 mi
12:00 AM73 °FClear.9 mph69%29.80 "Hg10 mi
11:00 PM
Jan 24
75 °FClear.12 mph69%29.80 "Hg10 mi
10:00 PM75 °FClear.13 mph74%29.80 "Hg10 mi
9:00 PM75 °FClear.15 mph78%29.80 "Hg10 mi
8:00 PM75 °FClear.20 mph78%29.80 "Hg10 mi
7:00 PM77 °FClear.21 mph74%29.80 "Hg10 mi
Weather by CustomWeather, © 2014

See weather overviewHow to use our weather pages